Location: Shepherdstown, WV
(39.4326°N, 77.8042°W)
Time: 22:59:43
(UTC-04:00)

Vanguard 1 - Pass Details

Date: 03 August 2021
Orbit: 652 x 3831 km, 34.3° (Epoch: 17 September)

Event Time Altitude Azimuth Distance (km) Brightness Sun altitude
Rises 11:54:05 0° 249° (WSW) 2,972 12.4 61.4°
Reaches altitude 10° 11:56:12 10° 243° (WSW) 2,128 11.9 61.7°
Maximum altitude 12:00:42 48° 168° (SSE) 1,070 11.9 62.3°
Drops below altitude 10° 12:07:17 10° 96° (E) 3,094 13.1 63.1°
Sets 12:11:00 0° 92° (E) 4,511 13.7 63.6°
